Regional Weather Roundup
Issued by NWS

Home | Current Version | Previous Version | Text Only | Print | Product List | Glossary Off
Versions: 1 2 3 4 5 6 7 8 9 10 11 12 13 14 15 16 17 18 19 20 21 22 23 24 25 26 27 28 29 30 31 32 33 34 35 36 37 38 39 40 41 42 43 44 45 46 47 48 49 50

000
ASUS43 KBIS 261410
RWRND

NORTH DAKOTA REGIONAL WEATHER ROUNDUP
NATIONAL WEATHER SERVICE BISMARCK ND
800 AM CST FRI DEC 26 2014

NOTE: "FAIR" INDICATES FEW OR NO CLOUDS BELOW 12,000 FEET WITH NO
SIGNIFICANT WEATHER AND/OR OBSTRUCTIONS TO VISIBILITY.


NDZ001>003-009>011-017-261500-
NORTHWEST NORTH DAKOTA

CITY           SKY/WX    TMP DP  RH WIND       PRES   REMARKS
WILLISTON      CLOUDY    12   8  84 N8        30.15R WCI   0
MINOT          LGT SNOW   7   3  84 CALM      30.17R
MINOT AFB      CLOUDY     5   3  91 NW8       30.18R WCI  -8
$$

NDZ018>021-031>035-040>046-261500-
SOUTHWEST NORTH DAKOTA

CITY           SKY/WX    TMP DP  RH WIND       PRES   REMARKS
BISMARCK       CLOUDY    13   9  84 NW12      30.17R WCI  -1
DICKINSON      CLOUDY    17  12  80 NW3       30.08R
GARRISON         N/A     12   7  80 N12       30.15R WCI  -2
HETTINGER ARPT CLOUDY    16  10  77 CALM      30.11R
$$

NDZ004>008-012>016-024-026-027-054-261500-
NORTHEAST NORTH DAKOTA

CITY           SKY/WX    TMP DP  RH WIND       PRES   REMARKS
GRAND FORKS    CLOUDY    24  17  74 N9        30.14R WCI  14
GRND FRKS AFB  MOCLDY    21  19  93 NW8       30.14R WCI  12
DEVILS LAKE    CLOUDY    12   7  79 NW15      30.13R WCI  -4
$$

NDZ022-023-025-028>030-036>039-047>053-261500-
SOUTHEAST NORTH DAKOTA

CITY           SKY/WX    TMP DP  RH WIND       PRES   REMARKS
FARGO          MOCLDY    23  18  81 N13       30.12R WCI  11
JAMESTOWN      CLOUDY    19  16  88 NW10      30.11R WCI   7
$$



USA.gov is the U.S. government's official web portal to all federal, state and local government web resources and services.